Time,TemperatureF,DewpointF,PressureIn,WindDirection,WindDirectionDegrees,WindSpeedMPH,WindSpeedGustMPH,Humidity,HourlyPrecipIn,Conditions,Clouds,dailyrainin,SolarRadiationWatts/m^2,SoftwareType,DateUTC
2013-08-04 00:00:00,59.0,58.0,30.05,ESE,119,6.0,-999.0,96,-99.99,,,-99.99,0.150000,,2013-08-04 06:00:00,
2013-08-04 02:00:00,56.0,54.0,30.03,South,186,5.0,-999.0,96,-99.99,,,-99.99,0.090000,,2013-08-04 08:00:00,
2013-08-04 02:53:00,56.0,54.0,30.03,South,186,5.0,-999.0,96,-99.99,,,-99.99,0.090000,,2013-08-04 08:53:00,
2013-08-04 03:00:00,55.0,54.0,30.02,SW,222,2.0,-999.0,97,-99.99,,,-99.99,0.100000,,2013-08-04 09:00:00,
2013-08-04 04:00:00,55.0,55.0,30.00,WSW,239,2.0,-999.0,98,-99.99,,,-99.99,0.090000,,2013-08-04 10:00:00,
2013-08-04 04:53:00,55.0,55.0,30.00,WSW,239,2.0,-999.0,98,-99.99,,,-99.99,0.090000,,2013-08-04 10:53:00,
2013-08-04 05:00:00,54.0,54.0,30.01,West,268,4.0,-999.0,99,-99.99,,,-99.99,0.120000,,2013-08-04 11:00:00,
2013-08-04 05:53:00,54.0,54.0,30.01,West,268,4.0,-999.0,99,-99.99,,,-99.99,0.120000,,2013-08-04 11:53:00,
2013-08-04 06:00:00,58.0,57.0,30.02,WNW,289,7.0,-999.0,99,-99.99,,,-99.99,1.620000,,2013-08-04 12:00:00,
2013-08-04 07:00:00,59.0,59.0,30.02,NW,307,7.0,-999.0,99,-99.99,,,-99.99,27.950001,,2013-08-04 13:00:00,
2013-08-04 07:52:00,59.0,59.0,30.02,NW,307,7.0,-999.0,99,-99.99,,,-99.99,27.950001,,2013-08-04 13:52:00,
2013-08-04 08:00:00,61.0,60.0,30.03,WNW,300,8.0,-999.0,96,-99.99,,,-99.99,89.699997,,2013-08-04 14:00:00,
2013-08-04 08:53:00,61.0,60.0,30.03,WNW,300,8.0,-999.0,96,-99.99,,,-99.99,89.699997,,2013-08-04 14:53:00,
2013-08-04 09:00:00,63.0,60.0,30.03,NW,317,10.0,-999.0,89,-99.99,,,-99.99,155.699997,,2013-08-04 15:00:00,
2013-08-04 09:53:00,63.0,60.0,30.03,NW,317,10.0,-999.0,89,-99.99,,,-99.99,155.699997,,2013-08-04 15:53:00,
2013-08-04 10:00:00,67.0,60.0,30.03,NW,318,9.0,-999.0,78,-99.99,,,-99.99,369.700012,,2013-08-04 16:00:00,
2013-08-04 10:53:00,67.0,60.0,30.03,NW,318,9.0,-999.0,78,-99.99,,,-99.99,369.700012,,2013-08-04 16:53:00,
2013-08-04 11:00:00,67.0,59.0,30.03,NW,325,9.0,-999.0,74,-99.99,,,-99.99,461.100006,,2013-08-04 17:00:00,
2013-08-04 11:53:00,67.0,59.0,30.03,NW,325,9.0,-999.0,74,-99.99,,,-99.99,461.100006,,2013-08-04 17:53:00,
2013-08-04 12:00:00,70.0,59.0,30.02,NNW,331,7.0,-999.0,69,-99.99,,,-99.99,603.000000,,2013-08-04 18:00:00,
2013-08-04 12:52:00,70.0,59.0,30.02,NNW,331,7.0,-999.0,69,-99.99,,,-99.99,603.000000,,2013-08-04 18:52:00,
2013-08-04 13:00:00,72.0,59.0,30.01,NNW,327,7.0,-999.0,65,-99.99,,,-99.99,564.200012,,2013-08-04 19:00:00,
2013-08-04 13:53:00,72.0,59.0,30.01,NNW,327,7.0,-999.0,65,-99.99,,,-99.99,564.200012,,2013-08-04 19:53:00,
2013-08-04 14:00:00,73.0,59.0,30.00,NNW,340,6.0,-999.0,62,-99.99,,,-99.99,649.000000,,2013-08-04 20:00:00,
2013-08-04 14:53:00,73.0,59.0,30.00,NNW,340,6.0,-999.0,62,-99.99,,,-99.99,649.000000,,2013-08-04 20:53:00,
2013-08-04 15:00:00,74.0,59.0,29.99,NNW,344,7.0,-999.0,59,-99.99,,,-99.99,576.799988,,2013-08-04 21:00:00,
2013-08-04 15:53:00,74.0,59.0,29.99,NNW,344,7.0,-999.0,59,-99.99,,,-99.99,576.799988,,2013-08-04 21:53:00,
2013-08-04 16:00:00,74.0,57.0,29.99,NNW,345,7.0,-999.0,56,-99.99,,,-99.99,452.200012,,2013-08-04 22:00:00,
2013-08-04 16:53:00,74.0,57.0,29.99,NNW,345,7.0,-999.0,56,-99.99,,,-99.99,452.200012,,2013-08-04 22:53:00,
2013-08-04 17:00:00,74.0,51.0,29.98,NNW,343,5.0,-999.0,45,-99.99,,,-99.99,489.299988,,2013-08-04 23:00:00,
2013-08-04 17:53:00,74.0,51.0,29.98,NNW,343,5.0,-999.0,45,-99.99,,,-99.99,489.299988,,2013-08-04 23:53:00,
2013-08-04 18:00:00,74.0,48.0,29.96,NW,319,5.0,-999.0,41,-99.99,,,-99.99,338.100006,,2013-08-05 00:00:00,
2013-08-04 18:53:00,74.0,48.0,29.96,NW,319,5.0,-999.0,41,-99.99,,,-99.99,338.100006,,2013-08-05 00:53:00,
2013-08-04 19:00:00,73.0,52.0,29.96,NW,308,4.0,-999.0,47,-99.99,,,-99.99,209.600006,,2013-08-05 01:00:00,
2013-08-04 19:52:00,73.0,52.0,29.96,NW,308,4.0,-999.0,47,-99.99,,,-99.99,209.600006,,2013-08-05 01:52:00,
2013-08-04 20:00:00,72.0,57.0,29.97,WNW,289,3.0,-999.0,60,-99.99,,,-99.99,84.699997,,2013-08-05 02:00:00,
2013-08-04 21:00:00,68.0,55.0,29.99,West,271,1.0,-999.0,63,-99.99,,,-99.99,6.300000,,2013-08-05 03:00:00,
2013-08-04 21:53:00,68.0,55.0,29.99,West,271,1.0,-999.0,63,-99.99,,,-99.99,6.300000,,2013-08-05 03:53:00,
2013-08-04 22:00:00,68.0,56.0,30.00,WSW,239,2.0,-999.0,65,-99.99,,,-99.99,0.180000,,2013-08-05 04:00:00,
2013-08-04 22:52:00,68.0,56.0,30.00,WSW,239,2.0,-999.0,65,-99.99,,,-99.99,0.180000,,2013-08-05 04:52:00,
2013-08-04 23:00:00,60.0,55.0,30.00,SW,234,5.0,-999.0,83,-99.99,,,-99.99,0.160000,,2013-08-05 05:00:00,
2013-08-04 23:53:00,60.0,55.0,30.00,SW,234,5.0,-999.0,83,-99.99,,,-99.99,0.160000,,2013-08-05 05:53:00,